EW0631 Weather Reports


Display with metric or nautical units.
time (UTC)temp
F
wind
direction
speed
MPH
gust
MPH
rain 1hr
in
rain 24hr
in
rain mn
in
humidity
%
barometer
mb
20260906124550 80 175 0.0 1.0 0.00 0.00 0.00 86 1014.0
20260906123051 79 155 0.0 0.0 0.00 0.00 0.00 87 1014.0
20260906121531 79 133 1.0 7.0 0.00 0.00 0.00 84 1013.9
20260906120028 0 0.0 0.0 0.00 0.00 0.00 1013.1
20260906114506 0 0.0 0.0 0.00 0.00 0.00 1012.9
20260906113001 0 0.0 0.0 0.00 0.00 0.00 1012.6
20260906111545 0 0.0 0.0 0.00 0.00 0.00 1012.6
20260906110041 0 0.0 0.0 0.00 0.00 0.00 1012.5
20260906104538 0 0.0 0.0 0.00 0.00 0.00 1012.4
20260906103032 0 0.0 0.0 0.00 0.00 0.00 1012.4
20260906101528 0 0.0 0.0 0.00 0.00 0.00 1012.4
20260906100023 0 0.0 0.0 0.00 0.00 0.00 1012.3
20260906094519 0 0.0 0.0 0.00 0.00 0.00 1012.2
20260906093028 79 309 0.0 0.0 0.00 0.00 0.00 87 1012.4
20260906091559 79 309 0.0 0.0 0.00 0.00 0.00 87 1012.2
20260906090101 79 309 0.0 0.0 0.00 0.00 0.00 88 1012.1
20260906084548 79 309 0.0 0.0 0.00 0.00 0.00 88 1012.2
20260906083037 80 309 0.0 0.0 0.00 0.00 0.00 88 1012.3
20260906081526 81 309 0.0 0.0 0.00 0.00 0.00 85 1012.1
20260906080020 81 309 0.0 0.0 0.00 0.00 0.00 82 1011.9
20260906074520 81 309 0.0 0.0 0.00 0.00 0.00 83 1011.9
20260906073021 81 309 0.0 0.0 0.00 0.00 0.00 85 1011.9
20260906071521 81 309 0.0 0.0 0.00 0.00 0.00 85 1011.9
20260906070019 81 309 0.0 1.0 0.00 0.00 0.00 86 1012.0
20260906064525 81 309 0.0 0.0 0.00 0.00 0.00 86 1012.1
20260906063017 81 309 0.0 0.0 0.00 0.00 0.00 85 1012.3
20260906061559 81 309 0.0 0.0 0.00 0.00 0.00 85 1012.4
20260906060104 81 309 0.0 0.0 0.00 0.00 0.00 84 1012.5
20260906054541 81 309 0.0 0.0 0.00 0.00 0.00 83 1012.3
20260906053040 81 309 0.0 0.0 0.00 0.00 0.00 82 1012.3
20260906051522 81 309 0.0 0.0 0.00 0.00 0.00 82 1012.3
20260906050020 82 331 0.0 0.0 0.00 0.00 0.00 85 1012.3
20260906044501 82 331 0.0 0.0 0.00 0.00 0.00 84 1012.2
20260906043059 83 331 0.0 0.0 0.00 0.00 0.00 83 1012.2
20260906041546 83 331 0.0 0.0 0.00 0.00 0.00 83 1012.1
20260906040046 83 331 0.0 0.0 0.00 0.00 0.00 81 1012.1
20260906034526 84 331 0.0 0.0 0.00 0.00 0.00 81 1012.0
20260906033020 84 331 0.0 0.0 0.00 0.00 0.00 81 1012.1
20260906031501 85 331 0.0 0.0 0.00 0.00 0.00 80 1012.0
20260906030101 85 331 0.0 0.0 0.00 0.00 0.00 79 1012.0
20260906024541 85 331 0.0 0.0 0.00 0.00 0.00 78 1012.0
20260906023045 85 331 0.0 0.0 0.00 0.00 0.00 77 1011.9
20260906021521 86 331 0.0 0.0 0.00 0.00 0.00 77 1011.8
20260906020019 86 331 0.0 0.0 0.00 0.00 0.00 76 1011.4
20260906014611 87 331 0.0 0.0 0.00 0.00 0.00 72 1011.2
20260906013057 88 331 0.0 0.0 0.00 0.00 0.00 70 1011.1
20260906011535 89 331 0.0 0.0 0.00 0.00 0.00 66 1011.0
20260906010032 90 331 0.0 0.0 0.00 0.00 0.00 62 1010.9
20260906004510 92 331 0.0 0.0 0.00 0.00 0.00 57 1010.8
20260906003007 94 331 0.0 0.0 0.00 0.00 0.00 56 1010.8
20260906001548 95 331 0.0 0.0 0.00 0.00 0.00 52 1010.9
20260906000046 97 331 0.0 0.0 0.00 0.00 0.00 50 1011.0
20260905234528 99 330 0.0 0.0 0.00 0.00 0.00 47 1011.1
20260905233028 101 331 0.0 0.0 0.00 0.00 0.00 43 1011.2
20260905231510 102 331 0.0 1.0 0.00 0.00 0.00 42 1011.1
20260905230009 102 331 0.0 1.0 0.00 0.00 0.00 42 1011.1
20260905224608 102 326 0.0 1.0 0.00 0.00 0.00 42 1011.1
20260905223054 102 327 0.0 1.0 0.00 0.00 0.00 42 1011.1
20260905221538 103 252 0.0 1.0 0.00 0.00 0.00 40 1011.2
20260905220033 103 130 0.0 2.0 0.00 0.00 0.00 40 1011.2
20260905214513 103 86 0.0 2.0 0.00 0.00 0.00 39 1011.3
20260905213011 102 98 0.0 4.0 0.00 0.00 0.00 41 1011.4
20260905211558 102 333 0.0 2.0 0.00 0.00 0.00 41 1011.3
20260905210057 103 321 0.0 2.0 0.00 0.00 0.00 40 1011.5
20260905204554 102 287 1.0 5.0 0.00 0.00 0.00 41 1011.6
20260905203053 101 323 0.0 4.0 0.00 0.00 0.00 40 1011.9
20260905201559 101 303 0.0 5.0 0.00 0.00 0.00 44 1012.2
20260905200051 101 343 0.0 5.0 0.00 0.00 0.00 42 1012.4
20260905194546 101 39 0.0 6.0 0.00 0.00 0.00 46 1012.6
20260905193043 101 199 0.0 4.0 0.00 0.00 0.00 45 1012.9
20260905191527 101 267 0.0 4.0 0.00 0.00 0.00 45 1013.3
20260905190028 100 281 0.0 5.0 0.00 0.00 0.00 45 1013.4
20260905184525 100 261 0.0 3.0 0.00 0.00 0.00 46 1013.5
20260905183024 100 166 0.0 4.0 0.00 0.00 0.00 47 1013.6
20260905181522 100 310 1.0 5.0 0.00 0.00 0.00 46 1013.6
20260905180019 99 347 0.0 8.0 0.00 0.00 0.00 47 1013.7
20260905174520 99 288 0.0 5.0 0.00 0.00 0.00 50 1013.9
20260905173025 99 217 0.0 6.0 0.00 0.00 0.00 51 1014.0
20260905171612 98 295 0.0 4.0 0.00 0.00 0.00 53 1014.3
20260905170055 98 165 0.0 4.0 0.00 0.00 0.00 55 1014.4
20260905164551 97 153 0.0 2.0 0.00 0.00 0.00 56 1014.5
20260905163030 95 286 0.0 4.0 0.00 0.00 0.00 59 1014.7
20260905161528 94 292 0.0 5.0 0.00 0.00 0.00 62 1014.8
20260905160021 94 305 0.0 5.0 0.00 0.00 0.00 62 1014.8
20260905154515 93 203 0.0 1.0 0.00 0.00 0.00 64 1015.0
20260905153018 92 297 0.0 4.0 0.00 0.00 0.00 65 1014.9
20260905151514 92 281 0.0 2.0 0.00 0.00 0.00 65 1014.9
20260905150013 91 259 0.0 2.0 0.00 0.00 0.00 66 1014.8
20260905144513 90 259 0.0 2.0 0.00 0.00 0.00 65 1015.0
20260905143016 89 252 0.0 2.0 0.00 0.00 0.00 68 1014.9
20260905141513 87 251 0.0 1.0 0.00 0.00 0.00 71 1014.7
20260905140055 86 254 0.0 2.0 0.00 0.00 0.00 72 1014.7
20260905134554 85 254 0.0 1.0 0.00 0.00 0.00 73 1014.7
20260905133035 84 254 0.0 0.0 0.00 0.00 0.00 79 1014.6
20260905131552 82 254 0.0 0.0 0.00 0.00 0.00 84 1014.6
20260905130018 80 254 0.0 0.0 0.00 0.00 0.00 86 1014.5